Погода в Позу-Алегри

Бразилия     22°13′56″S   45°56′22″W
темп.,
°C
ветер,
м/с
пор.,
м/с
влажн.,
%
обл.,
%
осадки,
мм/ч
давл.,
гПа
погр.,
м
28 сентября, вт
вт2800:00+15ююз11890 0.0 101911
03:00+15юз01900 0.0 101811
06:00+14ююв11920 0.0 101911
09:00+23всв12590 0.0 1019528
12:00+30всв25292 0.0 10162882
15:00+33с351932 0.0 10103611
18:00+25в113979 0.0 101116
21:00+20ююв11454 0.0 101513
29 сентября, ср
ср2900:00+19вюв114966 0.0 101614
03:00+17в11685 0.0 101414
06:00+16юв117636 0.0 101511
09:00+24св35511 0.0 1015902
12:00+33всв162497 0.0 10113770
15:00+27всв2333100 0.0 1008102
18:00+23ссв114791 0.1 101012
21:00+20юз115872 0.1 101412
30 сентября, чт
чт3000:00+17ююв118228 0.0 101414
03:00+16юв11899 0.0 101311
06:00+15юв11914 0.0 101411
09:00+25в23484 0.0 1014655
12:00+33в142817 0.0 10112296
15:00+28юв123795 0.1 100895
18:00+24ссв01433 0.0 100911
21:00+20в11541 0.0 101313
1 октября, пт
пт100:00+18вюв11736 0.0 101311
03:00+17всв118311 0.0 101211
06:00+17ююв11824 0.0 101436
09:00+26св354957 0.0 1013862
12:00+34с472599 0.0 10083223
15:00+32зюз2827100 0.1 10052739
18:00+22ююв2667100 0.1 1009262
21:00+19ююв1184100 0.1 101223
2 октября, сб
сб200:00+19в248319 0.1 1012172
03:00+18вюв23853 0.3 101296
06:00+17вюв11914 0.0 101320
09:00+25всв355431 0.1 1013858
12:00+31св3434100 0.0 10101561
15:00+30ююв453574 0.1 10061002
18:00+21всв238271 2.4 100853
21:00+19юз1192100 2.4 101215